Radiation Dose at Monitoring Post of Fukushima Daini Nuclear Power Station
Date,Time,MP-1(microSv/h),MP-2(microSv/h),MP-3(microSv/h),MP-4(microSv/h),MP-5(microSv/h),MP-6(microSv/h),MP-7(microSv/h),Wind Direction,Wind Velocity(m/s),Rain
2019/01/21,00:00,0.221,0.199,0.322,0.302,0.282,0.160,0.097,west-northwest,12.8,No
2019/01/21,00:10,0.220,0.198,0.323,0.301,0.282,0.161,0.097,west-northwest,12.0,No
2019/01/21,00:20,0.220,0.198,0.323,0.302,0.283,0.160,0.097,west-northwest,9.3,No
2019/01/21,00:30,0.220,0.198,0.322,0.300,0.283,0.159,0.097,west-northwest,10.9,No
2019/01/21,00:40,0.220,0.198,0.322,0.301,0.282,0.160,0.097,west-northwest,9.7,No
2019/01/21,00:50,0.220,0.198,0.322,0.301,0.283,0.159,0.097,west-northwest,6.0,No
2019/01/21,01:00,0.220,0.198,0.323,0.302,0.282,0.161,0.098,west,4.9,No
2019/01/21,01:10,0.219,0.197,0.323,0.301,0.282,0.159,0.096,northwest,4.7,No
2019/01/21,01:20,0.221,0.198,0.322,0.300,0.283,0.161,0.096,west,5.4,No
2019/01/21,01:30,0.220,0.199,0.323,0.300,0.283,0.160,0.095,north-northwest,1.8,No
2019/01/21,01:40,0.220,0.198,0.322,0.301,0.282,0.160,0.097,north,1.1,No
2019/01/21,01:50,0.220,0.199,0.323,0.303,0.282,0.159,0.097,southwest,3.9,No
2019/01/21,02:00,0.221,0.199,0.324,0.301,0.282,0.160,0.097,north,1.6,No
2019/01/21,02:10,0.221,0.198,0.321,0.301,0.283,0.160,0.097,west-northwest,1.3,No
2019/01/21,02:20,0.219,0.197,0.321,0.301,0.282,0.159,0.097,west-northwest,2.1,No
2019/01/21,02:30,0.220,0.197,0.322,0.301,0.281,0.160,0.097,west-northwest,4.7,No
2019/01/21,02:40,0.220,0.198,0.321,0.300,0.282,0.160,0.096,northwest,6.6,No
2019/01/21,02:50,0.220,0.197,0.321,0.301,0.282,0.159,0.097,north-northwest,3.2,No
2019/01/21,03:00,0.221,0.198,0.321,0.300,0.282,0.160,0.097,northwest,1.4,No
2019/01/21,03:10,0.220,0.198,0.322,0.301,0.280,0.160,0.096,north-northwest,8.4,No
2019/01/21,03:20,0.220,0.198,0.322,0.299,0.281,0.160,0.096,northwest,5.0,No
2019/01/21,03:30,0.220,0.197,0.322,0.300,0.281,0.159,0.097,northwest,4.0,No
2019/01/21,03:40,0.219,0.197,0.320,0.299,0.279,0.159,0.097,northwest,11.2,No
2019/01/21,03:50,0.219,0.197,0.322,0.301,0.281,0.160,0.096,north-northwest,7.3,No
2019/01/21,04:00,0.220,0.198,0.322,0.299,0.281,0.159,0.097,northwest,6.8,No
2019/01/21,04:10,0.220,0.197,0.321,0.300,0.280,0.160,0.097,north-northwest,7.5,No
2019/01/21,04:20,0.219,0.198,0.322,0.301,0.281,0.160,0.096,north-northwest,4.1,No
2019/01/21,04:30,0.220,0.198,0.321,0.301,0.281,0.159,0.097,northwest,5.3,No
2019/01/21,04:40,0.219,0.198,0.321,0.300,0.281,0.159,0.096,north,5.6,No
2019/01/21,04:50,0.219,0.197,0.321,0.300,0.281,0.159,0.096,north-northwest,3.9,No
2019/01/21,05:00,0.219,0.199,0.321,0.301,0.280,0.159,0.097,north-northwest,1.3,No
2019/01/21,05:10,0.219,0.198,0.322,0.301,0.281,0.160,0.097,northwest,3.8,No
2019/01/21,05:20,0.220,0.198,0.321,0.300,0.281,0.159,0.096,west,5.3,No
2019/01/21,05:30,0.220,0.197,0.321,0.299,0.281,0.160,0.096,northwest,4.1,No
2019/01/21,05:40,0.221,0.198,0.321,0.300,0.281,0.159,0.096,west-northwest,5.3,No
2019/01/21,05:50,0.219,0.198,0.322,0.300,0.281,0.159,0.096,west-northwest,5.8,No
2019/01/21,06:00,0.219,0.198,0.321,0.300,0.280,0.159,0.095,northwest,4.8,No
2019/01/21,06:10,0.220,0.198,0.323,0.301,0.280,0.159,0.096,west-northwest,7.6,No
2019/01/21,06:20,0.220,0.197,0.320,0.300,0.281,0.160,0.096,west-northwest,8.2,No
2019/01/21,06:30,0.218,0.198,0.321,0.300,0.281,0.160,0.097,northwest,8.3,No
2019/01/21,06:40,0.221,0.197,0.323,0.300,0.281,0.159,0.096,west-northwest,10.9,No
2019/01/21,06:50,0.220,0.197,0.321,0.301,0.280,0.159,0.096,west-northwest,10.7,No
2019/01/21,07:00,0.220,0.197,0.321,0.300,0.281,0.159,0.095,west-northwest,13.4,No
2019/01/21,07:10,0.220,0.197,0.323,0.300,0.281,0.159,0.096,west,12.2,No
2019/01/21,07:20,0.220,0.197,0.323,0.300,0.282,0.161,0.096,west-northwest,12.0,No
2019/01/21,07:30,0.220,0.197,0.323,0.300,0.281,0.160,0.096,west-northwest,10.9,No
2019/01/21,07:40,0.218,0.197,0.322,0.300,0.282,0.160,0.097,west,15.5,No
2019/01/21,07:50,0.219,0.196,0.324,0.300,0.284,0.159,0.096,west-northwest,9.8,No
2019/01/21,08:00,0.220,0.197,0.323,0.301,0.283,0.160,0.097,west-northwest,10.1,No
2019/01/21,08:10,0.220,0.197,0.323,0.301,0.282,0.160,0.097,northwest,10.0,No
2019/01/21,08:20,0.220,0.197,0.321,0.300,0.281,0.159,0.096,northwest,6.1,No
2019/01/21,08:30,0.219,0.199,0.322,0.301,0.282,0.159,0.096,northwest,6.5,No
2019/01/21,08:40,0.220,0.198,0.322,0.300,0.282,0.159,0.096,northwest,8.4,No
2019/01/21,08:50,0.219,0.198,0.323,0.301,0.282,0.159,0.097,west-northwest,10.6,No
2019/01/21,09:00,0.220,0.198,0.322,0.300,0.283,0.159,0.096,west-northwest,12.2,No
2019/01/21,09:10,0.219,0.199,0.322,0.299,0.283,0.159,0.096,northwest,10.7,No
2019/01/21,09:20,0.218,0.198,0.323,0.300,0.282,0.160,0.096,northwest,10.9,No
2019/01/21,09:30,0.218,0.198,0.322,0.300,0.282,0.159,0.096,west-northwest,14.5,No
2019/01/21,09:40,0.219,0.197,0.323,0.298,0.282,0.160,0.097,west-northwest,11.5,No
2019/01/21,09:50,0.218,0.197,0.322,0.299,0.283,0.159,0.095,west,13.1,No
2019/01/21,10:00,0.218,0.198,0.323,0.301,0.281,0.160,0.097,west-northwest,13.1,No
2019/01/21,10:10,0.219,0.198,0.323,0.300,0.278,0.160,0.096,west,14.7,No
2019/01/21,10:20,0.218,0.196,0.322,0.299,0.279,0.160,0.096,west-northwest,8.4,No
2019/01/21,10:30,0.219,0.197,0.322,0.300,0.280,0.160,0.096,west-northwest,9.7,No
2019/01/21,10:40,0.217,0.197,0.323,0.301,0.282,0.160,0.096,west-northwest,12.0,No
2019/01/21,10:50,0.219,0.196,0.322,0.299,0.282,0.159,0.097,west-northwest,9.8,No
2019/01/21,11:00,0.218,0.197,0.324,0.301,0.280,0.160,0.096,west-northwest,9.6,No
2019/01/21,11:10,0.217,0.197,0.324,0.300,0.283,0.159,0.096,west-northwest,12.0,No
2019/01/21,11:20,0.216,0.198,0.323,0.300,0.280,0.159,0.096,west,12.8,No
2019/01/21,11:30,0.218,0.198,0.324,0.300,0.282,0.159,0.096,northwest,9.5,No
2019/01/21,11:40,0.218,0.198,0.323,0.302,0.282,0.160,0.097,west,15.9,No
2019/01/21,11:50,0.216,0.197,0.321,0.300,0.279,0.160,0.097,west,9.8,No
2019/01/21,12:00,0.219,0.199,0.321,0.300,0.281,0.160,0.096,west-northwest,11.4,No
2019/01/21,12:10,0.218,0.197,0.321,0.299,0.282,0.160,0.096,west,15.1,No
2019/01/21,12:20,0.218,0.197,0.321,0.299,0.280,0.159,0.096,west,15.0,No
2019/01/21,12:30,0.218,0.198,0.322,0.300,0.280,0.160,0.096,west,14.0,No
2019/01/21,12:40,0.219,0.197,0.321,0.300,0.283,0.159,0.096,west,13.1,No
2019/01/21,12:50,0.217,0.198,0.322,0.299,0.282,0.159,0.096,west-northwest,12.6,No
2019/01/21,13:00,0.218,0.197,0.321,0.301,0.281,0.159,0.096,west,13.9,No
2019/01/21,13:10,0.218,0.199,0.321,0.301,0.283,0.159,0.096,west,12.5,No
2019/01/21,13:20,0.217,0.197,0.322,0.299,0.284,0.160,0.097,west,12.2,No
2019/01/21,13:30,0.220,0.196,0.322,0.301,0.282,0.160,0.096,west,15.1,No
2019/01/21,13:40,0.216,0.198,0.319,0.299,0.282,0.161,0.097,west,13.9,No
2019/01/21,13:50,0.216,0.197,0.322,0.300,0.283,0.160,0.096,west,13.6,No
2019/01/21,14:00,0.218,0.196,0.321,0.301,0.282,0.159,0.096,west,13.7,No
2019/01/21,14:10,0.217,0.197,0.322,0.299,0.281,0.161,0.097,west-northwest,11.2,No
2019/01/21,14:20,0.218,0.198,0.322,0.300,0.281,0.160,0.095,west,12.3,No
2019/01/21,14:30,0.218,0.197,0.322,0.301,0.280,0.159,0.096,west,10.1,No
2019/01/21,14:40,0.218,0.198,0.323,0.300,0.280,0.160,0.096,west,12.6,No
2019/01/21,14:50,0.219,0.198,0.323,0.301,0.283,0.160,0.096,west-northwest,12.8,No
2019/01/21,15:00,0.219,0.197,0.322,0.303,0.283,0.159,0.096,west,10.6,No
2019/01/21,15:10,0.218,0.198,0.323,0.300,0.281,0.157,0.097,west,12.2,No
2019/01/21,15:20,0.220,0.198,0.322,0.299,0.284,0.160,0.096,west,12.9,No
2019/01/21,15:30,0.220,0.198,0.322,0.301,0.282,0.159,0.096,west,12.0,No
2019/01/21,15:40,0.219,0.198,0.320,0.302,0.283,0.160,0.097,west,10.7,No
2019/01/21,15:50,0.217,0.199,0.321,0.301,0.283,0.160,0.096,west,11.4,No
2019/01/21,16:00,0.218,0.198,0.323,0.300,0.282,0.159,0.096,west,9.5,Yes
2019/01/21,16:10,0.218,0.198,0.322,0.301,0.282,0.159,0.096,west,8.7,Yes
2019/01/21,16:20,0.219,0.198,0.321,0.301,0.282,0.159,0.096,west,9.8,No
2019/01/21,16:30,0.218,0.199,0.321,0.300,0.281,0.159,0.096,west,11.1,No
2019/01/21,16:40,0.219,0.197,0.322,0.302,0.282,0.160,0.096,west,8.8,No
2019/01/21,16:50,0.218,0.197,0.322,0.301,0.282,0.160,0.096,west,6.7,No
2019/01/21,17:00,0.220,0.198,0.323,0.300,0.282,0.160,0.096,west,6.1,No
2019/01/21,17:10,0.221,0.198,0.321,0.300,0.282,0.159,0.095,west,5.6,No
2019/01/21,17:20,0.220,0.198,0.321,0.302,0.282,0.159,0.096,west-southwest,4.6,No
2019/01/21,17:30,0.220,0.197,0.322,0.301,0.281,0.159,0.097,west-southwest,4.1,No
2019/01/21,17:40,0.219,0.198,0.323,0.300,0.281,0.160,0.096,west-southwest,3.8,No
2019/01/21,17:50,0.220,0.197,0.323,0.300,0.282,0.160,0.096,west-southwest,4.0,No
2019/01/21,18:00,0.220,0.198,0.320,0.301,0.281,0.159,0.095,west,5.1,No
2019/01/21,18:10,0.218,0.197,0.321,0.301,0.280,0.160,0.097,west,3.4,No
2019/01/21,18:20,0.218,0.197,0.321,0.302,0.281,0.160,0.096,west,3.3,No
2019/01/21,18:30,0.219,0.197,0.321,0.301,0.281,0.159,0.096,west,3.7,No
2019/01/21,18:40,0.218,0.197,0.321,0.300,0.281,0.159,0.096,west,5.0,No
2019/01/21,18:50,0.220,0.198,0.320,0.302,0.279,0.159,0.096,west,4.6,No
2019/01/21,19:00,0.219,0.197,0.322,0.302,0.281,0.160,0.097,west,4.3,No
2019/01/21,19:10,0.219,0.197,0.321,0.301,0.281,0.160,0.097,west,4.1,No
2019/01/21,19:20,0.219,0.198,0.324,0.299,0.280,0.159,0.097,west,4.9,No
2019/01/21,19:30,0.219,0.198,0.322,0.300,0.280,0.159,0.096,west,5.0,No
2019/01/21,19:40,0.219,0.197,0.322,0.301,0.279,0.160,0.096,west,4.4,No
2019/01/21,19:50,0.219,0.198,0.321,0.302,0.280,0.160,0.096,west-southwest,3.8,No
2019/01/21,20:00,0.219,0.197,0.323,0.300,0.280,0.159,0.097,west,3.9,No
2019/01/21,20:10,0.219,0.197,0.321,0.300,0.280,0.159,0.096,west,3.3,No
2019/01/21,20:20,0.220,0.197,0.322,0.300,0.281,0.160,0.097,west-northwest,4.6,No
2019/01/21,20:30,0.219,0.198,0.322,0.300,0.281,0.160,0.096,west-northwest,4.0,No
2019/01/21,20:40,0.219,0.198,0.322,0.301,0.280,0.159,0.096,west-northwest,5.3,No
2019/01/21,20:50,0.221,0.199,0.321,0.301,0.281,0.160,0.096,west-northwest,3.7,No
2019/01/21,21:00,0.219,0.199,0.322,0.300,0.280,0.160,0.097,west-northwest,3.6,No
2019/01/21,21:10,0.219,0.197,0.322,0.301,0.280,0.160,0.097,west-northwest,3.6,No
2019/01/21,21:20,0.219,0.198,0.322,0.301,0.280,0.160,0.096,west-northwest,4.7,No
2019/01/21,21:30,0.219,0.197,0.321,0.301,0.281,0.158,0.096,northwest,5.0,No
2019/01/21,21:40,0.219,0.197,0.322,0.301,0.280,0.160,0.096,northwest,5.9,No
2019/01/21,21:50,0.220,0.198,0.322,0.301,0.281,0.159,0.097,northwest,6.2,No
2019/01/21,22:00,0.220,0.197,0.322,0.300,0.280,0.159,0.096,northwest,4.3,No
2019/01/21,22:10,0.220,0.198,0.322,0.301,0.280,0.158,0.097,northwest,3.4,No
2019/01/21,22:20,0.220,0.197,0.322,0.301,0.281,0.159,0.097,north-northwest,3.6,No
2019/01/21,22:30,0.219,0.198,0.321,0.301,0.281,0.158,0.097,north-northwest,4.3,No
2019/01/21,22:40,0.220,0.198,0.322,0.301,0.280,0.158,0.096,north-northwest,2.1,No
2019/01/21,22:50,0.219,0.198,0.322,0.302,0.280,0.159,0.097,north-northwest,4.0,No
2019/01/21,23:00,0.220,0.198,0.322,0.302,0.280,0.160,0.097,northwest,6.4,No
2019/01/21,23:10,0.219,0.198,0.321,0.301,0.280,0.160,0.097,northwest,4.2,No
2019/01/21,23:20,0.221,0.198,0.322,0.301,0.280,0.160,0.097,west-northwest,6.1,No
2019/01/21,23:30,0.220,0.198,0.323,0.301,0.279,0.160,0.096,west-northwest,10.1,No
2019/01/21,23:40,0.220,0.199,0.322,0.300,0.280,0.160,0.096,west,11.2,No
2019/01/21,23:50,0.219,0.198,0.322,0.300,0.280,0.159,0.096,west,12.0,No
